This demonstration page uses our WeatherBlox Daily Observations layout. Learn more.

Left ArrowRight Arrow

39.01783, -85.05884

Hourly Observations for July 12, 2020

Temp ( °F °C ) Dew Point ( °F °C ) Humidity (%) Winds ( mph kmh ) Pressure ( in mb ) Visibility ( mi km ) Precip ( " mm )
12:52 am 00:52 Mostly Cloudy 68 20 65 18.3 90 90 SW 6 9 29.82 1010 10 16 0.00 0.00
1:52 am 01:52 Mostly Cloudy 67 19.4 65 18.3 93 93 SW 7 11 29.82 1010 10 16 0.00 0.00
2:52 am 02:52 Mostly Cloudy 67 19.4 64 17.8 91 91 SW 9 15 29.82 1010 10 16 0.00 0.00
3:52 am 03:52 Mostly Cloudy 67 19.4 62 16.7 84 84 W 9 15 29.81 1010 10 16 0.00 0.00
4:52 am 04:52 Cloudy 66 18.9 62 16.7 87 87 W 9 15 29.80 1009 10 16 0.00 0.00
5:52 am 05:52 Cloudy 67 19.4 62 16.7 84 84 N 6 9 29.75 1007 10 16 0.00 0.00
6:52 am 06:52 Mostly Cloudy 65 18.3 62 16.7 90 90 WSW 9 15 29.80 1009 10 16 0.00 0.00
7:52 am 07:52 Cloudy 65 18.3 63 17.2 93 93 W 8 13 29.85 1011 10 16 0.00 0.00
8:52 am 08:52 Mostly Cloudy 68 20 63 17.2 84 84 W 6 9 29.85 1011 10 16 0.00 0.00
9:52 am 09:52 Mostly Sunny 72 22.2 62 16.7 71 71 VRB 3 6 29.83 1010 10 16 0.00 0.00
10:52 am 10:52 Partly Cloudy 75 23.9 64 17.8 69 69 VRB 7 11 29.83 1010 10 16 0.00 0.00
11:52 am 11:52 Partly Cloudy 76 24.4 63 17.2 64 64 VRB 5 7 29.83 1010 10 16 0.00 0.00
12:52 pm 12:52 Partly Cloudy 80 26.7 64 17.8 58 58 W 10 17 29.83 1010 10 16 0.00 0.00
1:52 pm 13:52 Partly Cloudy 79 26.1 65 18.3 62 62 NW 12 19 29.82 1010 10 16 0.00 0.00
2:52 pm 14:52 Partly Cloudy 81 27.2 64 17.8 57 57 NW 9 15 29.79 1009 10 16 0.00 0.00
3:52 pm 15:52 Partly Cloudy 82 27.8 63 17.2 53 53 WNW 14 22 29.78 1009 10 16 0.00 0.00
4:52 pm 16:52 Mostly Cloudy 82 27.8 64 17.8 55 55 NNW 9 15 29.79 1009 10 16 0.00 0.00
5:26 pm 17:26 Mostly Cloudy with Thunderstorms 79 26.1 65 18.3 62 62 N 28 44 29.78 1008 10 16 0.00 0.00
5:52 pm 17:52 Cloudy with Thunderstorms 71 21.7 64 17.8 79 79 NNW 12 19 29.82 1010 10 16 0.02 0.51
6:16 pm 18:16 Mostly Cloudy with Light Rain 71 21.7 64 17.8 79 79 N 8 13 29.80 1009 9 14 0.02 0.51
6:52 pm 18:52 Mostly Cloudy 74 23.3 63 17.2 69 69 NNE 14 22 29.81 1010 10 16 0.02 0.51
7:52 pm 19:52 Mostly Sunny 76 24.4 60 15.6 58 58 NNE 8 13 29.82 1010 10 16 0.00 0.00
8:52 pm 20:52 Partly Cloudy 73 22.8 61 16.1 66 66 NW 6 9 29.82 1010 10 16 0.00 0.00
9:52 pm 21:52 Mostly Clear 70 21.1 61 16.1 73 73 NNW 5 7 29.83 1010 10 16 0.00 0.00
10:52 pm 22:52 Mostly Clear 66 18.9 61 16.1 84 84 Calm 29.86 1011 10 16 0.00 0.00
11:52 pm 23:52 Clear 67 19.4 61 16.1 81 81 Calm 29.87 1011 10 16 0.00 0.00

Powered by AerisWeather